Wetbulb
54.42 54.37 53.51 52.83 52.49 52.44 52.05 51.29 50.88 50.82 50.38 49.74 49.57 49.57 49.89 50.34 50.28 50.06 49.89 49.77 49.77 50.01 50.33 51.22 52.15 52.81 52.23 47.49 46.31 52.17 51.94 53.92 55.22 56.83 54.10 51.92 50.05 48.91 46.09 47.99 48.37 47.90 48.66 49.81 51.08 50.69 50.57
53.90 53.41 53.37 53.11 52.55 51.77 50.59 50.57 50.46 49.40 49.14 48.90 49.27 49.22 49.32 49.50 49.69 49.67 49.66 49.60 49.64 49.98 50.37 51.28 52.82 52.55 50.46 43.15 49.42 50.66 50.47 49.83 49.75 52.88 52.66 52.73 50.83 50.98 48.44 47.37 46.48 47.56 47.20 47.75 48.21 48.62 49.65
53.73 52.96 52.75 52.39 51.71 50.77 50.71 50.47 49.79 49.10 48.89 48.64 49.13 48.98 49.10 49.30 49.53 49.60 49.64 49.70 49.66 50.33 50.71 52.03 53.51 52.91 48.45 46.70 52.37 53.04 52.05 50.66 50.07 49.58 48.30 51.75 53.01 50.86 50.52 47.33 50.03 48.95 45.50 47.32 47.83 47.82 47.52
52.84 52.37 52.06 51.40 50.79 50.36 49.95 49.83 49.79 49.18 48.74 48.67 48.78 48.86 48.75 48.84 49.15 49.13 49.67 50.25 49.91 50.20 51.24 52.74 53.53 52.81 45.88 52.18 54.01 51.90 54.41 53.25 53.39 50.94 48.88 50.35 52.38 50.93 49.84 50.83 47.96 43.34 44.21 40.10 45.05 46.26 47.21
52.42 51.93 51.69 51.02 50.74 50.35 49.86 50.20 49.80 49.43 48.50 48.37 48.41 48.30 48.39 48.92 48.90 49.54 49.84 49.98 49.67 50.77 52.16 52.53 53.09 50.46 45.26 51.60 50.99 52.98 53.73 50.84 52.21 52.93 52.05 49.08 48.11 45.93 46.32 42.74 40.70 42.42 36.20 38.03 41.73 46.21 45.45
52.39 51.93 51.25 51.12 50.82 49.63 49.18 50.69 50.11 48.67 47.88 47.95 47.91 48.04 48.35 48.55 48.97 49.36 49.33 48.93 50.26 51.44 51.66 52.29 52.00 46.09 49.08 45.11 47.17 47.23 49.66 51.27 49.68 50.15 48.43 45.64 44.27 41.84 42.22 40.73 34.02 36.43 36.20 38.90 38.47 43.14 44.50
52.70 52.15 51.46 51.40 50.10 49.08 49.73 49.90 48.93 47.71 47.18 47.25 47.66 48.13 48.42 48.53 48.36 49.10 48.78 49.90 45.63 46.26 45.58 41.75 42.67 42.59 42.94 47.54 50.84 48.50 48.74 45.89 46.69 47.73 42.67 45.09 38.97 37.23 39.87 42.13 41.28 39.94 38.53 38.20 39.97 43.64 43.39
52.05 51.90 51.44 50.26 49.30 48.84 49.56 49.21 47.65 46.67 46.51 46.77 46.97 47.53 47.84 47.80 47.82 48.47 49.98 44.19 42.42 43.48 38.24 44.35 44.08 43.87 46.06 47.45 43.01 47.22 49.30 42.28 42.83 40.42 44.22 42.08 37.23 41.60 43.12 42.71 40.75 39.12 37.93 37.82 40.28 42.14 41.40
51.80 50.72 50.05 49.57 49.40 49.38 49.04 47.55 46.74 46.54 46.09 46.27 46.46 46.61 47.17 47.28 47.82 48.47 46.55 44.27 48.34 47.81 39.16 41.97 44.14 44.40 45.55 46.53 43.62 44.99 47.33 45.32 41.08 39.04 39.93 39.41 41.46 43.42 41.24 40.62 38.31 38.79 37.94 37.79 37.73 40.41 43.24
50.16 49.48 49.17 48.62 48.21 47.76 47.36 47.21 46.45 45.62 45.76 45.87 46.18 46.18 46.49 46.36 45.10 47.33 45.29 47.46 49.03 48.93 36.01 38.22 39.30 44.29 45.43 45.29 41.28 48.46 46.92 45.84 43.25 39.01 38.89 40.18 43.99 41.91 41.53 39.59 39.84 35.00 41.15 39.33 38.62 37.62 32.93
49.41 48.64 48.16 47.45 47.18 46.84 46.48 45.98 45.73 45.19 45.28 45.51 45.72 46.01 46.02 46.11 45.83 44.92 45.26 48.83 49.23 46.86 25.73 37.11 40.02 49.42 44.99 40.17 40.73 41.83 47.87 45.14 39.66 40.61 41.31 36.54 37.89 40.10 39.53 40.20 41.57 37.75 41.99 40.61 40.09 37.37 37.15
48.69 48.01 47.53 46.86 46.15 45.95 45.79 46.09 45.35 44.95 44.69 45.71 45.75 45.74 46.23 46.77 48.12 46.90 48.50 49.03 47.40 35.17 25.82 33.95 38.10 38.17 38.10 39.66 39.27 40.99 42.33 46.83 45.01 40.59 41.56 40.51 42.37 43.05 42.32 44.11 43.38 43.41 41.37 41.38 40.63 38.77 32.65
48.31 47.56 47.12 46.56 46.20 45.63 45.74 45.76 45.34 44.79 44.86 45.58 45.42 45.26 45.92 47.39 43.38 48.37 48.80 45.32 33.47 27.81 35.73 32.29 33.43 36.59 35.59 34.80 35.78 38.08 38.89 38.94 36.64 33.42 33.86 38.50 38.29 42.15 44.34 40.43 43.38 41.77 39.00 31.13 29.58 30.48 29.01
47.87 47.35 46.48 46.33 45.98 45.89 46.22 45.67 44.92 44.74 44.86 44.90 44.95 43.88 43.62 46.92 49.17 49.09 45.98 37.76 25.32 31.31 31.28 36.67 34.77 34.04 31.33 34.44 35.22 36.46 35.88 34.50 39.69 37.79 35.16 31.32 28.92 39.29 43.68 41.32 38.82 38.85 38.39 32.02 26.07 28.40 33.19
46.83 46.34 46.08 45.73 45.82 45.46 45.31 45.04 44.86 44.54 44.50 44.67 44.49 46.83 47.44 47.68 49.70 48.20 40.65 29.62 29.97 31.11 33.39 31.21 31.97 29.88 31.22 34.45 32.69 33.88 34.15 34.10 37.17 37.19 32.02 32.46 32.12 41.46 43.46 43.63 42.76 38.40 35.75 41.12 35.51 36.81 33.76
46.39 46.12 45.21 45.58 45.25 44.98 44.87 44.66 44.61 44.12 44.20 44.45 45.65 44.48 43.60 48.58 49.45 45.38 38.25 27.59 30.57 33.70 33.53 32.75 26.48 30.17 26.82 30.24 30.23 30.92 31.18 36.05 34.88 36.61 36.76 37.78 30.37 38.79 41.66 43.45 43.19 41.06 42.61 33.97 36.46 27.07 26.77
45.37 46.04 45.38 44.77 44.54 45.03 44.77 44.67 44.34 44.20 43.74 43.74 44.18 40.24 44.65 47.82 47.53 41.15 32.00 31.06 31.74 35.26 34.65 30.51 29.14 28.19 29.18 28.44 30.43 29.91 30.26 34.93 35.67 34.83 35.80 36.31 37.38 36.31 40.85 38.26 36.89 37.88 37.08 38.24 38.57 36.89 30.48
45.14 45.79 44.98 44.13 43.94 44.79 44.59 44.65 44.32 43.82 43.68 41.85 44.12 37.47 46.11 47.06 37.25 37.85 32.71 31.27 33.58 33.36 35.97 33.78 33.53 31.26 29.82 30.65 29.08 29.01 29.12 33.56 36.98 35.93 31.59 36.10 37.00 32.30 35.99 41.90 43.01 41.81 39.33 39.44 33.06 31.84 35.83
44.80 44.88 44.48 44.26 44.83 44.66 44.68 44.34 43.90 43.79 43.56 45.52 41.51 40.21 45.96 44.83 32.08 34.02 33.13 32.10 33.21 32.51 32.98 32.55 31.09 32.99 33.48 30.33 25.95 30.47 31.95 37.48 37.23 34.37 33.58 35.07 34.71 30.54 31.00 37.54 41.85 38.93 40.58 41.11 39.40 38.41 33.78
43.94 44.16 43.90 43.49 44.19 44.80 44.65 44.11 43.39 43.57 43.74 44.03 41.37 34.25 38.49 41.09 37.44 31.60 29.58 30.00 30.07 35.59 33.95 34.35 33.14 34.83 32.44 30.15 33.55 29.85 31.24 34.54 35.61 34.93 38.00 36.43 32.43 34.06 29.19 34.60 38.85 35.08 37.75 39.79 38.44 33.41 33.78
44.06 43.81 43.28 43.16 43.76 44.55 44.26 43.41 42.71 43.19 44.22 42.77 41.51 35.17 36.47 33.46 33.02 32.77 30.89 29.63 28.98 28.56 34.22 35.01 32.40 32.25 30.52 27.51 29.78 30.01 32.57 33.53 35.75 36.82 36.56 34.75 34.69 36.39 37.28 38.88 39.27 38.10 37.38 38.07 36.14 36.83 32.56
43.78 43.44 43.33 43.40 43.79 44.59 43.66 42.89 42.86 43.77 44.05 42.48 36.81 37.09 36.95 34.80 32.57 28.78 31.09 28.91 28.73 29.85 30.29 30.06 29.67 32.20 32.63 29.73 30.87 27.74 30.93 32.37 32.81 37.00 34.97 37.41 33.32 36.72 33.89 37.22 37.04 34.51 35.91 36.55 36.76 36.78 36.79
43.96 43.05 42.99 43.50 44.78 43.85 43.11 43.40 43.98 44.23 43.42 39.99 43.52 41.89 38.98 31.97 33.41 31.79 32.32 29.85 29.92 32.45 32.85 33.76 32.71 31.78 31.73 34.07 37.46 37.67 38.73 37.31 36.47 34.95 34.71 34.90 35.85 34.21 28.36 34.38 33.15 29.61 33.90 35.24 36.24 39.12 37.80
44.00 43.44 43.67 43.94 43.70 43.40 43.52 43.84 44.17 44.25 43.63 42.72 42.96 42.37 35.04 32.59 33.54 32.62 32.17 33.01 31.06 30.99 29.38 33.41 34.71 32.12 36.05 40.27 39.49 40.44 39.26 38.14 38.56 37.65 38.32 35.12 34.66 34.64 27.66 30.61 23.83 34.97 40.98 39.93 38.02 37.86 38.68
44.36 43.82 43.83 43.25 43.35 43.96 44.18 44.15 43.91 44.49 44.37 42.92 44.34 39.54 35.01 30.32 34.63 33.15 32.91 33.15 34.62 34.44 33.21 33.19 35.10 36.45 39.01 35.93 32.00 32.01 32.59 34.32 35.40 37.60 37.18 39.23 35.51 30.28 28.61 30.00 32.33 35.40 37.41 36.85 35.89 32.75 35.36
43.53 43.49 43.05 43.07 43.54 43.26 43.81 43.56 44.13 44.61 44.63 44.41 44.47 45.56 40.36 33.15 34.34 35.22 33.45 34.83 32.57 31.15 31.64 32.80 39.46 41.39 38.07 35.24 33.28 26.98 26.10 29.97 28.98 32.07 38.27 37.79 38.19 33.96 31.52 25.81 22.94 32.12 38.23 41.91 40.76 28.07 33.42
43.26 43.11 43.14 43.69 43.51 43.24 43.34 43.81 44.08 44.17 44.81 44.87 45.16 43.65 39.36 35.54 38.45 37.43 34.25 32.81 36.31 34.78 33.27 35.82 36.28 37.38 40.81 34.51 31.58 29.50 28.79 34.05 28.43 28.45 29.67 32.32 32.97 30.62 29.90 29.80 31.54 33.48 38.55 40.51 30.83 26.43 32.81
43.02 42.58 43.52 43.82 43.91 43.58 43.74 43.81 44.12 43.95 44.13 45.32 43.42 45.09 40.66 37.64 38.15 39.48 39.63 36.27 36.71 36.46 32.44 35.95 36.90 36.87 35.53 31.20 30.81 31.50 30.86 32.95 32.67 33.87 31.37 30.84 29.55 30.47 31.09 28.83 25.61 33.39 37.27 30.05 30.44 34.11 34.30
43.04 43.23 43.37 43.74 43.98 43.89 43.76 43.68 43.78 43.90 44.30 44.95 40.56 44.72 43.28 36.69 38.47 42.69 42.49 43.11 41.32 40.20 37.29 37.87 34.72 35.54 36.73 32.12 32.39 33.25 32.51 34.54 32.91 28.86 36.33 30.21 30.39 28.53 28.61 26.67 31.86 32.39 31.25 32.59 33.96 32.02 32.57
MSLP
1019.60 1019.55 1019.74 1020.06 1020.41 1020.69 1020.41 1020.59 1020.47 1020.35 1020.30 1020.21 1020.15 1019.84 1019.51 1019.23 1018.92 1018.58 1018.31 1017.80 1017.25 1016.97 1016.25 1015.73 1015.46 1015.19 1014.84 1011.92 1009.03 1009.62 1010.15 1010.14 1009.74 1009.27 1008.41 1007.65 1007.24 1006.63 1005.66 1005.14 1004.59 1003.77 1003.80 1003.64 1003.37 1002.96 1002.84
1019.43 1019.62 1019.57 1019.97 1020.14 1020.47 1020.34 1020.42 1020.45 1020.26 1020.21 1020.10 1020.05 1019.83 1019.52 1019.18 1018.75 1018.27 1018.03 1017.44 1016.73 1016.37 1015.95 1015.08 1014.76 1014.95 1013.92 1010.62 1008.52 1009.01 1009.38 1009.24 1008.90 1008.38 1007.80 1007.39 1006.61 1006.27 1005.73 1004.97 1004.58 1004.16 1003.93 1003.36 1003.55 1003.10 1002.82
1018.58 1019.33 1019.47 1019.78 1020.03 1020.28 1020.20 1020.22 1020.07 1020.14 1020.26 1019.93 1019.92 1019.67 1019.09 1018.88 1018.56 1018.00 1017.57 1016.95 1015.97 1015.91 1015.15 1014.83 1014.52 1014.44 1012.02 1009.26 1008.49 1008.81 1009.03 1008.79 1008.60 1008.27 1007.54 1007.15 1006.86 1006.67 1005.95 1005.58 1005.04 1004.55 1004.14 1003.62 1003.16 1003.05 1002.60
1018.02 1018.60 1019.18 1019.45 1019.87 1020.08 1020.06 1020.06 1020.06 1019.99 1020.08 1020.03 1019.66 1019.49 1018.92 1018.77 1018.40 1017.74 1016.94 1016.09 1015.53 1015.01 1014.82 1014.21 1014.00 1013.03 1010.73 1008.92 1009.11 1008.81 1008.28 1008.04 1007.99 1008.16 1008.04 1007.68 1007.16 1006.84 1006.43 1006.19 1005.41 1004.94 1004.23 1002.69 1002.09 1002.08 1001.65
1017.90 1018.27 1018.86 1019.31 1019.69 1019.97 1019.93 1019.82 1019.94 1019.92 1019.93 1019.97 1019.44 1019.24 1018.98 1018.88 1017.84 1017.07 1016.33 1015.84 1015.17 1014.79 1014.39 1013.88 1013.04 1012.01 1009.35 1009.56 1008.82 1008.11 1007.92 1007.82 1007.63 1007.66 1007.62 1007.76 1007.78 1007.08 1006.59 1006.16 1005.36 1004.57 1003.17 1002.41 1001.33 1001.03 1001.44
1017.03 1018.06 1018.41 1018.91 1019.49 1019.78 1019.72 1019.68 1019.89 1019.90 1019.93 1019.81 1019.55 1019.16 1018.67 1018.38 1017.77 1016.82 1015.89 1015.17 1014.63 1014.33 1013.82 1012.76 1011.94 1011.68 1009.03 1008.16 1008.18 1008.35 1008.30 1007.92 1007.70 1007.09 1007.47 1007.39 1006.87 1006.17 1005.47 1004.84 1002.87 1003.10 1002.81 1001.73 1001.26 1000.86 1000.41
1016.90 1017.59 1018.12 1018.63 1019.28 1019.52 1019.61 1019.77 1019.87 1019.89 1019.97 1019.75 1019.58 1019.18 1018.69 1018.18 1017.70 1016.84 1015.42 1013.26 1013.87 1012.88 1011.91 1011.25 1010.16 1009.59 1009.05 1008.29 1008.41 1007.61 1007.34 1007.28 1007.08 1006.79 1006.27 1006.17 1005.82 1003.53 1003.47 1003.54 1003.58 1003.55 1002.84 1001.71 1001.39 1000.58 1000.40
1016.55 1016.84 1017.91 1018.62 1018.83 1019.18 1019.53 1019.70 1019.92 1020.06 1019.83 1019.70 1019.48 1019.04 1018.73 1018.06 1017.59 1016.44 1015.36 1014.38 1015.53 1015.79 1012.88 1010.60 1009.65 1009.38 1009.30 1009.09 1008.32 1006.71 1007.23 1006.97 1006.27 1005.42 1005.15 1005.08 1003.59 1003.54 1003.48 1002.91 1003.34 1003.72 1003.19 1002.48 1002.01 1001.36 1000.92
1016.46 1016.95 1017.86 1018.51 1018.73 1018.86 1019.33 1019.77 1019.86 1019.83 1020.01 1019.69 1019.38 1018.97 1018.40 1017.96 1017.25 1016.59 1015.63 1015.68 1015.80 1015.68 1013.41 1009.11 1008.64 1008.32 1008.34 1008.78 1007.54 1006.62 1006.99 1006.28 1005.86 1004.83 1004.09 1003.08 1002.47 1002.78 1003.23 1002.50 1002.99 1003.00 1002.83 1002.61 1002.06 1001.73 1000.76
1016.34 1016.87 1017.71 1018.52 1018.58 1018.49 1019.21 1019.63 1019.77 1019.51 1020.08 1019.79 1019.46 1019.08 1018.39 1017.68 1017.52 1015.90 1015.15 1015.73 1015.70 1016.04 1012.72 1008.40 1008.10 1007.62 1007.90 1007.96 1007.17 1006.62 1005.93 1006.22 1005.41 1004.31 1003.86 1002.53 1002.15 1002.05 1002.21 1001.90 1002.83 1002.58 1002.91 1003.04 1002.69 1001.99 1000.49
1016.13 1016.47 1017.45 1018.60 1018.98 1018.58 1018.80 1019.56 1019.57 1019.44 1019.92 1019.84 1019.48 1019.02 1018.31 1017.42 1016.46 1015.34 1015.90 1015.85 1015.58 1015.59 1011.09 1008.08 1007.57 1007.99 1007.62 1007.77 1006.80 1005.53 1005.90 1005.97 1005.10 1004.17 1003.53 1002.20 1002.17 1001.41 1001.56 1001.59 1002.35 1002.39 1002.66 1002.45 1002.31 1001.69 1000.86
1015.93 1016.54 1017.22 1018.35 1019.05 1019.05 1019.05 1019.34 1019.39 1019.45 1019.64 1020.12 1019.62 1018.83 1018.16 1017.04 1016.34 1016.33 1016.23 1016.04 1015.34 1013.09 1008.69 1008.01 1007.93 1008.10 1008.28 1007.61 1006.66 1005.68 1005.43 1005.09 1005.36 1004.35 1003.34 1002.01 1001.45 1000.96 1000.84 1001.47 1002.00 1002.04 1002.37 1002.57 1002.46 1001.72 999.74
1016.09 1016.49 1017.11 1017.84 1018.63 1019.04 1019.13 1019.21 1019.48 1019.41 1019.28 1019.79 1019.29 1018.82 1017.94 1017.10 1016.57 1016.68 1016.57 1015.24 1013.31 1010.41 1008.71 1008.62 1009.21 1009.51 1009.22 1008.01 1006.78 1006.15 1005.20 1004.68 1004.28 1003.46 1002.86 1001.67 1001.10 1001.82 1000.89 1000.85 1001.64 1002.00 1002.04 1001.83 1001.43 1000.33 998.57
1016.16 1016.79 1017.27 1017.73 1018.69 1018.74 1019.02 1019.08 1019.62 1019.48 1019.38 1019.34 1019.15 1018.67 1018.34 1017.46 1017.42 1016.76 1016.03 1014.37 1012.21 1009.91 1009.75 1010.08 1010.66 1010.62 1009.52 1008.08 1006.98 1006.62 1006.04 1005.14 1004.14 1003.95 1003.42 1002.07 1000.75 1000.85 1000.56 1000.54 1000.90 1001.28 1001.36 1000.45 999.43 998.57 996.96
1016.03 1016.88 1017.21 1017.79 1018.49 1018.64 1019.06 1019.37 1019.44 1019.32 1019.41 1018.98 1018.91 1017.81 1017.39 1017.64 1017.37 1016.69 1015.13 1013.78 1011.77 1011.79 1012.01 1012.07 1012.01 1010.56 1009.19 1008.52 1009.46 1008.39 1006.93 1006.19 1005.79 1006.85 1005.48 1002.54 1000.74 999.64 1000.34 1000.59 1000.84 1000.88 1000.79 1000.72 1000.00 999.49 997.94
1016.00 1016.57 1017.20 1017.89 1018.37 1018.64 1019.02 1019.33 1019.53 1019.31 1019.13 1018.82 1017.63 1017.14 1017.57 1017.80 1017.38 1016.22 1014.77 1014.13 1013.40 1013.45 1013.57 1013.35 1012.56 1011.61 1010.43 1009.60 1009.43 1009.09 1008.40 1007.59 1008.29 1009.19 1008.42 1004.59 1002.42 1000.54 1000.07 1000.52 1000.61 1000.48 1000.66 1000.97 1000.40 999.15 997.70
1015.97 1016.55 1017.10 1017.79 1018.35 1018.66 1018.84 1019.24 1019.53 1019.33 1019.03 1018.82 1017.95 1016.41 1017.63 1017.63 1017.12 1015.56 1014.69 1014.11 1014.51 1014.26 1014.26 1014.07 1013.13 1012.33 1011.56 1010.84 1010.28 1009.46 1008.86 1008.25 1009.78 1009.94 1009.50 1006.98 1003.77 1001.81 1000.11 1000.00 999.91 1000.72 1000.59 1000.66 1000.46 999.47 998.29
1016.01 1016.53 1017.14 1017.75 1018.34 1018.62 1018.66 1019.37 1019.50 1019.20 1018.96 1019.08 1017.34 1016.55 1017.82 1017.38 1016.13 1015.58 1014.66 1015.50 1015.70 1014.54 1014.19 1013.75 1013.41 1012.82 1011.92 1011.42 1010.71 1010.07 1009.43 1008.93 1010.05 1010.45 1008.76 1007.15 1004.89 1001.75 999.79 999.93 999.71 1000.12 1000.22 1000.61 1000.44 1000.20 999.30
1016.20 1016.76 1017.15 1017.87 1018.20 1018.56 1018.87 1019.28 1019.43 1019.27 1019.04 1017.65 1016.67 1016.74 1017.70 1017.14 1015.93 1015.30 1015.37 1015.47 1015.27 1014.78 1014.21 1013.83 1013.44 1012.95 1012.55 1011.81 1011.32 1010.31 1009.68 1009.34 1009.51 1010.34 1009.93 1008.78 1005.33 1002.28 1001.53 1000.88 1000.16 999.70 999.84 999.99 1001.05 1000.93 1000.04
1016.43 1016.84 1017.23 1017.69 1018.21 1018.58 1018.92 1019.22 1019.28 1019.21 1019.09 1018.77 1017.58 1017.07 1016.43 1016.15 1017.22 1016.97 1016.50 1015.68 1015.17 1014.75 1014.30 1014.04 1013.60 1012.91 1012.31 1011.65 1010.89 1010.14 1009.81 1009.88 1010.57 1010.63 1009.79 1009.27 1005.66 1001.37 1000.02 998.73 999.79 1000.42 1000.77 1000.90 1001.22 1001.10 1000.36
1016.40 1016.82 1017.38 1017.78 1018.16 1018.56 1018.90 1019.14 1019.18 1019.20 1019.35 1019.23 1017.81 1017.01 1016.89 1016.05 1016.40 1017.07 1017.37 1017.15 1015.95 1015.29 1015.12 1014.56 1013.51 1012.90 1012.85 1012.03 1010.81 1009.88 1010.21 1010.54 1010.11 1009.38 1008.62 1007.62 1004.03 1001.55 1000.83 999.65 999.66 1000.31 1000.66 1001.06 1001.43 1001.58 1001.24
1016.30 1016.83 1017.41 1017.82 1018.16 1018.47 1018.85 1018.96 1019.12 1019.44 1019.44 1018.64 1017.84 1016.28 1017.30 1016.78 1017.19 1017.71 1017.05 1016.73 1016.24 1016.09 1016.09 1014.86 1014.39 1013.68 1012.99 1012.14 1011.07 1010.39 1010.13 1009.89 1009.54 1008.60 1008.02 1005.66 1003.92 1001.78 1001.11 1000.84 1000.76 1001.16 1001.60 1001.64 1001.82 1002.09 1002.29
1016.23 1016.87 1017.33 1017.85 1018.05 1018.49 1018.62 1019.03 1019.36 1019.49 1019.66 1018.54 1018.03 1017.95 1016.96 1016.71 1016.26 1016.47 1016.03 1016.53 1016.47 1016.97 1015.84 1015.39 1015.19 1014.26 1012.48 1011.88 1011.24 1010.43 1009.66 1009.03 1009.25 1008.70 1007.59 1005.61 1002.92 1001.80 1002.22 1002.01 1002.03 1002.26 1002.34 1002.57 1002.93 1003.33 1004.30
1016.32 1016.78 1017.33 1017.86 1018.12 1018.34 1018.72 1019.11 1019.34 1019.43 1019.59 1018.90 1018.21 1017.90 1017.66 1016.13 1015.78 1015.70 1015.92 1015.85 1015.92 1016.48 1016.61 1015.73 1015.20 1014.35 1013.03 1012.86 1011.60 1009.90 1009.11 1008.59 1008.12 1007.70 1006.96 1005.70 1003.78 1003.04 1003.41 1003.27 1002.85 1003.51 1003.60 1003.89 1004.77 1006.28 1007.08
1016.34 1016.72 1017.13 1017.59 1018.01 1018.29 1018.62 1019.02 1019.29 1019.57 1019.79 1019.14 1018.57 1018.49 1018.28 1017.33 1015.91 1015.53 1015.74 1015.52 1015.24 1015.60 1016.01 1015.69 1015.11 1014.86 1014.17 1013.31 1011.65 1009.18 1007.61 1007.24 1006.93 1006.66 1006.25 1005.47 1004.73 1004.51 1004.30 1003.68 1004.20 1004.75 1005.45 1005.87 1006.31 1008.82 1010.04
1016.17 1016.70 1017.01 1017.43 1017.89 1018.31 1018.61 1018.90 1019.34 1019.58 1019.83 1019.67 1018.80 1018.99 1018.76 1017.98 1015.68 1016.05 1015.82 1015.19 1015.09 1015.12 1014.81 1014.88 1014.22 1013.64 1013.76 1012.68 1010.77 1008.65 1007.02 1006.16 1005.93 1006.18 1006.36 1005.89 1005.78 1005.55 1005.26 1005.26 1005.66 1007.32 1007.43 1007.69 1007.98 1010.59 1012.25
1016.02 1016.56 1016.87 1017.39 1017.82 1018.17 1018.54 1018.95 1019.27 1019.45 1019.58 1019.75 1019.62 1020.06 1020.10 1018.58 1016.63 1016.54 1015.93 1016.10 1015.55 1015.13 1014.24 1013.55 1013.61 1012.83 1011.85 1011.58 1009.98 1008.59 1007.45 1006.90 1006.53 1006.39 1006.42 1006.58 1006.82 1006.59 1007.11 1007.02 1008.47 1010.35 1009.25 1008.34 1010.01 1013.97 1014.17
1015.81 1016.30 1016.91 1017.31 1017.73 1018.06 1018.51 1018.90 1019.17 1019.33 1019.51 1019.54 1019.67 1020.03 1020.06 1019.22 1017.53 1016.71 1016.33 1016.22 1015.59 1015.20 1014.81 1014.47 1013.39 1013.07 1012.52 1011.71 1010.91 1009.83 1008.75 1008.10 1007.83 1008.17 1008.28 1008.17 1008.42 1008.35 1008.99 1009.50 1011.46 1012.70 1010.97 1012.41 1015.28 1015.59 1015.86
1015.64 1016.33 1016.79 1017.15 1017.54 1018.06 1018.39 1018.78 1019.02 1019.29 1019.44 1019.58 1019.79 1020.01 1020.60 1020.51 1018.21 1017.48 1016.95 1016.76 1016.51 1016.23 1015.98 1015.18 1014.71 1014.40 1014.44 1013.71 1012.85 1011.88 1010.29 1009.73 1009.05 1008.69 1009.84 1010.32 1011.63 1011.80 1012.80 1013.75 1015.11 1015.62 1015.97 1016.62 1016.80 1017.07 1017.35
Wind_Speed
16 15 13 12 9 8 7 5 3 3 3 4 6 8 10 12 13 15 17 18 19 19 18 17 16 12 12 9 15 13 5 8 11 11 12 10 14 17 22 20 22 24 24 21 24 18 23
14 11 13 12 11 8 6 5 4 2 1 3 6 8 11 14 16 17 20 19 19 19 19 17 10 6 9 14 5 3 1 5 10 12 13 13 13 13 19 19 22 19 21 21 20 26 23
18 15 13 12 10 9 7 7 5 3 1 3 6 9 12 15 17 19 21 20 19 21 19 13 9 11 10 17 6 8 8 12 12 13 17 14 14 14 8 17 21 19 22 20 21 21 21
19 17 15 13 11 10 8 7 5 3 1 4 7 11 13 16 18 21 22 22 20 17 11 6 7 9 9 4 8 9 8 9 10 14 16 15 11 17 20 18 22 16 20 21 17 21 24
19 18 16 14 12 10 7 8 7 5 1 4 7 11 12 15 18 21 24 20 17 10 5 6 9 7 8 4 8 5 6 8 8 9 14 12 13 18 17 19 19 20 20 23 22 18 11
22 19 16 15 13 10 6 5 8 3 1 5 8 9 11 15 18 20 24 22 6 8 10 9 7 7 8 3 12 14 16 12 10 8 10 15 11 17 19 19 21 20 22 19 20 18 15
22 20 18 17 14 9 9 8 6 2 2 5 8 10 12 14 18 20 18 5 6 8 5 10 16 18 20 9 15 10 12 17 16 13 16 16 18 25 26 24 24 18 21 17 17 16 11
21 20 18 15 12 10 9 8 4 1 2 5 8 10 12 14 15 19 9 5 5 5 13 17 18 16 15 7 8 3 2 10 17 22 20 20 25 23 22 22 20 21 23 23 21 20 19
21 19 16 14 12 11 9 6 4 2 2 5 7 10 12 15 14 9 7 9 6 6 9 8 6 6 4 4 7 9 4 7 16 22 24 25 23 22 26 20 20 21 23 19 20 17 17
19 18 16 13 12 11 8 7 5 2 3 5 7 9 13 17 9 5 5 8 7 4 9 12 8 7 7 5 12 12 17 12 15 19 22 25 22 24 16 26 22 22 20 20 18 16 12
20 19 16 13 11 11 10 7 5 2 3 5 6 8 10 11 5 3 8 8 7 5 9 5 8 8 4 11 14 6 4 15 20 20 18 24 29 23 20 18 20 19 15 16 16 14 17
21 19 18 14 11 9 8 8 5 3 2 6 6 8 13 4 3 6 9 10 6 9 5 4 4 7 13 16 18 17 19 13 14 20 20 23 25 20 19 23 16 14 10 12 11 11 15
21 20 18 15 13 10 9 7 5 3 2 5 6 8 8 5 5 9 9 8 9 8 6 4 8 14 19 23 22 19 14 17 16 16 17 21 27 10 12 16 20 16 14 9 11 12 13
20 18 15 15 12 9 10 8 5 3 3 4 6 8 1 5 7 7 8 10 8 5 7 16 13 20 24 23 19 11 16 21 19 19 15 16 18 24 14 14 12 20 17 10 12 10 13
20 17 16 14 13 11 9 7 5 3 4 6 8 4 1 5 6 5 8 7 8 12 12 11 17 18 15 8 8 16 17 18 16 20 12 17 23 26 19 17 15 13 19 20 13 13 6
19 18 16 14 12 11 9 6 4 2 3 7 3 5 5 6 5 8 2 4 6 6 9 12 16 10 16 16 18 14 16 4 8 10 18 11 12 8 19 15 18 12 12 9 8 6 8
16 17 17 15 12 11 9 6 5 2 2 5 6 5 5 5 8 3 2 5 7 8 10 9 16 18 17 17 17 16 14 17 6 8 15 19 13 22 18 17 19 13 12 8 7 10 6
14 16 17 13 13 10 8 6 3 2 3 8 2 1 3 5 3 2 3 6 7 8 12 12 14 16 16 16 14 16 17 8 4 8 16 15 9 11 21 20 21 19 16 16 7 10 6
12 18 15 14 11 10 9 6 4 3 5 4 2 3 2 6 2 2 4 8 4 9 11 11 11 17 17 16 11 11 12 9 13 7 6 9 6 10 9 9 12 19 12 11 3 2 8
15 15 14 12 10 8 10 7 4 2 5 7 1 2 5 3 3 5 6 4 7 9 10 7 14 17 17 14 13 11 13 9 4 15 21 12 11 5 4 13 13 10 11 9 7 5 6
16 14 12 11 11 9 10 7 4 3 7 6 2 1 4 1 5 6 4 5 11 11 9 17 9 10 13 9 16 11 12 12 10 10 7 6 6 9 12 9 13 10 10 9 7 6 5
15 14 12 11 8 12 9 6 5 6 8 5 3 3 4 4 4 2 6 5 9 13 12 13 13 20 19 17 17 15 14 12 5 8 8 8 5 11 13 11 10 9 4 2 4 5 10
15 13 11 9 13 11 8 7 6 9 7 2 1 2 3 7 6 5 3 6 10 9 10 9 15 17 16 8 14 14 13 17 13 11 5 9 4 7 10 8 4 6 4 1 1 9 14
15 14 13 11 10 10 10 9 8 10 9 5 1 1 1 1 4 4 7 8 8 10 9 15 13 10 5 17 18 15 16 17 15 11 10 8 10 6 3 4 4 8 8 8 11 13 14
13 13 14 13 9 9 11 8 9 12 12 4 1 0 1 5 4 3 8 9 9 5 8 8 10 10 12 8 5 7 6 7 6 5 1 7 6 5 2 1 11 10 10 9 10 8 16
14 15 13 11 12 10 10 8 8 11 13 5 1 2 3 4 5 6 9 5 9 9 6 4 13 4 4 3 5 3 4 5 5 6 5 6 6 4 3 3 4 9 15 14 13 5 13
14 14 13 11 11 10 11 9 8 7 10 6 2 2 2 3 3 8 9 7 7 10 8 8 13 7 8 5 4 4 5 5 5 6 3 3 3 4 4 2 8 15 21 21 4 5 10
13 13 13 11 13 12 11 10 8 6 5 9 1 7 3 3 9 7 7 9 9 8 8 13 5 9 7 9 6 5 4 5 1 7 5 7 6 3 2 3 6 22 8 8 7 5 8
12 12 11 10 14 12 11 10 8 7 6 12 3 4 2 2 8 14 15 14 13 13 9 6 3 6 6 6 6 5 4 5 5 3 9 4 7 5 6 5 6 10 11 9 9 8 10
Wind_Direction
201 188 190 185 182 185 169 173 173 128 63 8 344 336 330 328 327 323 315 314 314 312 309 305 307 295 283 239 261 113 171 207 232 221 236 225 230 234 241 248 252 239 254 258 274 258 272
192 180 182 183 179 192 178 176 166 144 66 1 345 338 335 331 327 322 316 313 312 309 302 301 285 240 253 264 53 93 286 271 247 231 233 240 242 249 262 253 255 263 263 257 264 265 253
181 186 182 183 187 189 176 175 173 169 317 353 334 332 337 330 325 322 313 310 314 305 305 292 266 227 257 250 346 302 273 268 269 271 263 241 251 247 263 256 255 254 261 267 257 253 260
181 184 185 180 185 184 186 195 200 202 283 328 334 333 336 328 322 317 312 311 303 296 282 277 195 225 267 331 315 276 259 265 234 239 250 273 259 258 247 263 275 259 257 257 255 248 244
183 180 181 183 182 185 193 218 206 196 286 319 335 331 330 321 324 321 310 303 297 273 246 190 204 227 267 115 224 343 283 290 303 242 238 234 238 245 238 241 253 249 252 260 271 226 239
175 181 183 185 181 187 190 182 173 176 289 327 328 325 332 330 326 318 301 289 256 217 210 223 255 247 233 292 318 302 282 276 279 243 232 216 226 230 225 225 232 237 248 248 252 259 221
188 182 188 175 180 180 180 168 164 172 309 326 329 333 333 332 328 305 304 204 241 188 302 286 290 291 298 326 305 277 263 239 237 238 234 204 221 224 224 220 251 261 275 266 265 263 278
175 170 165 173 174 177 188 162 163 230 324 331 331 337 330 328 320 297 316 51 44 341 292 284 262 260 263 278 285 252 253 235 228 237 227 237 230 238 245 241 227 241 252 258 268 274 278
164 154 162 171 165 159 157 164 178 164 309 324 335 338 329 324 318 282 47 38 339 310 265 288 227 233 200 207 263 267 240 247 250 250 236 240 238 223 244 228 233 231 241 253 261 266 275
155 156 161 167 164 159 169 170 169 150 295 327 342 341 331 323 281 333 85 356 341 318 274 136 191 191 180 241 257 231 273 259 264 252 255 253 240 248 256 231 222 236 244 249 261 265 257
158 156 154 166 167 156 161 178 170 173 294 319 331 332 325 333 327 330 352 329 309 224 285 91 119 66 309 283 316 284 272 272 263 269 256 247 248 237 236 225 220 233 233 247 238 242 261
156 155 156 162 165 167 166 171 167 191 298 309 323 332 313 233 251 355 327 310 253 236 250 113 5 357 316 307 294 299 277 229 267 282 268 258 239 242 231 226 241 227 222 219 236 261 251
161 160 159 160 168 176 174 167 184 214 265 302 325 326 313 305 351 327 308 252 249 245 99 56 345 321 307 295 298 292 283 282 264 255 256 236 236 207 228 224 212 220 206 216 217 216 237
162 157 159 164 170 166 167 163 198 240 287 316 314 294 272 37 323 318 269 247 259 333 314 352 335 312 291 284 277 302 303 286 245 269 266 255 222 196 183 214 204 203 214 232 229 231 223
153 160 158 161 168 159 159 176 202 233 308 312 300 195 102 21 320 283 266 243 335 357 356 329 314 288 297 341 100 300 304 294 316 348 260 256 238 185 190 212 210 195 218 232 287 248 260
158 161 157 164 157 158 163 184 214 247 317 307 249 192 72 333 321 260 260 298 315 350 323 311 294 287 298 313 319 311 308 350 343 346 346 290 262 200 193 197 224 226 205 215 231 253 234
164 165 159 156 157 166 168 187 214 254 307 298 251 226 96 320 268 244 268 5 321 339 313 306 306 302 298 295 292 289 282 293 96 316 305 294 262 180 172 197 201 201 224 206 260 265 280
164 170 159 159 167 165 167 188 206 234 265 265 236 230 69 286 213 197 353 5 324 296 302 289 265 280 289 305 303 299 291 290 112 340 308 294 304 213 190 194 214 200 205 201 225 198 229
140 150 155 155 154 172 171 183 201 249 280 289 263 119 151 262 295 348 59 302 258 285 313 301 290 297 300 301 297 295 300 307 315 350 304 2 247 186 170 207 197 204 211 196 174 281 213
159 157 156 154 167 172 169 178 190 255 279 281 213 209 150 172 100 347 357 319 322 330 307 301 296 285 285 290 276 269 280 313 313 278 270 242 249 313 342 151 156 163 186 179 188 219 248
163 162 164 170 177 184 174 183 201 236 254 275 236 274 7 148 111 10 329 275 316 328 332 305 296 311 307 305 312 310 331 305 257 266 289 189 261 105 100 128 138 153 167 166 207 249 289
166 164 166 174 173 166 178 178 183 205 239 272 163 234 175 114 173 249 220 316 314 324 314 299 305 317 305 289 280 297 293 298 299 310 322 267 190 116 97 85 85 109 116 278 236 288 290
167 168 165 186 172 174 172 171 191 198 227 60 314 119 306 134 175 224 73 293 324 328 298 324 312 303 294 315 326 295 300 289 280 302 315 310 90 114 72 56 78 128 70 83 137 29 359
174 172 164 169 171 176 185 187 186 210 229 285 60 70 297 162 238 359 332 312 338 320 289 305 324 312 347 333 302 277 256 263 270 274 273 321 54 49 76 278 165 96 48 57 65 35 15
182 185 178 177 187 200 203 185 187 208 237 292 134 198 358 278 309 265 350 337 308 348 328 298 310 281 298 295 289 266 235 228 116 68 232 336 353 91 194 37 114 103 50 3 338 53 12
185 187 186 191 180 187 188 190 202 206 217 263 151 348 291 289 72 350 315 315 342 348 305 220 332 247 216 250 251 289 27 348 53 110 60 55 5 313 203 173 162 38 355 327 334 108 9
192 192 185 185 187 186 189 190 190 192 202 213 111 36 333 283 304 343 334 336 328 334 322 24 347 336 320 302 291 358 63 338 22 50 51 116 79 337 117 269 95 352 329 306 280 21 9
188 188 195 207 194 184 182 187 191 189 194 202 150 175 264 291 296 310 306 297 316 319 329 344 308 16 346 355 352 354 13 26 341 51 3 21 322 46 320 256 102 357 22 40 334 39 35
176 181 194 209 183 185 184 192 195 205 209 198 170 174 166 250 303 321 286 282 283 289 298 315 346 358 7 335 12 311 327 357 341 103 33 64 19 350 16 55 58 38 55 38 27 45 38